SEH6HR LGAV-LGIR

Flight info

Callsign SEH6HR
Flight time N/A
Altitude 25000
Route KEA UL607 GIVIS T514 XAVIS
Aircraft A320/M-SDE3FGHIRWY/LB1

Departure

Time 2026-05-05 18:04
Airport Athens Eleftherios Venizelos International Airport (LGAV)

Arrival

Time N/A
Airport Heraklion International Nikos Kazantzakis Airport (LGIR)
Time Latitude Longitude Altitude Speed Heading
2026-05-05 17:41 37.93331 23.94573 304 ft 0 kts 306°
2026-05-05 17:51 37.93321 23.94592 302 ft 4 kts 304°
2026-05-05 17:52 37.93306 23.94621 301 ft 4 kts 297°
2026-05-05 17:52 37.93297 23.94652 302 ft 4 kts 271°
2026-05-05 17:52 37.93301 23.94674 301 ft 1 kts 217°
2026-05-05 17:55 37.93279 23.94653 303 ft 15 kts 217°
2026-05-05 17:55 37.93171 23.94592 301 ft 18 kts 184°
2026-05-05 17:55 37.93054 23.94657 300 ft 22 kts 154°
2026-05-05 17:55 37.92922 23.94590 303 ft 22 kts 218°
2026-05-05 17:56 37.92798 23.94475 303 ft 22 kts 216°
2026-05-05 17:56 37.92674 23.94355 304 ft 23 kts 217°
2026-05-05 17:56 37.92568 23.94294 304 ft 15 kts 162°
2026-05-05 17:56 37.92490 23.94423 309 ft 22 kts 100°
2026-05-05 17:57 37.92529 23.94494 308 ft 0 kts 38°
2026-05-05 17:57 37.92578 23.94540 306 ft 35 kts 36°
2026-05-05 17:57 37.92977 23.94918 297 ft 105 kts 37°
2026-05-05 17:57 37.93318 23.95243 295 ft 2 kts 37°
2026-05-05 17:58 37.93401 23.95322 287 ft 22 kts 36°
2026-05-05 17:58 37.93518 23.95357 285 ft 2 kts 307°
2026-05-05 17:58 37.93516 23.95353 285 ft 0 kts 263°
2026-05-05 17:58 37.93470 23.95253 294 ft 19 kts 243°
2026-05-05 17:59 37.93420 23.95119 299 ft 15 kts 245°
2026-05-05 17:59 37.93375 23.95021 300 ft 11 kts 218°
2026-05-05 17:59 37.93299 23.94946 300 ft 21 kts 218°
2026-05-05 17:59 37.93157 23.94814 301 ft 26 kts 217°
2026-05-05 18:00 37.93008 23.94673 303 ft 27 kts 216°
2026-05-05 18:00 37.92853 23.94528 301 ft 28 kts 217°
2026-05-05 18:00 37.92700 23.94380 304 ft 23 kts 216°
2026-05-05 18:00 37.92596 23.94286 303 ft 14 kts 204°
2026-05-05 18:01 37.92531 23.94333 305 ft 9 kts 126°
2026-05-05 18:01 37.92518 23.94355 306 ft 0 kts 127°
2026-05-05 18:02 37.92516 23.94358 307 ft 3 kts 127°
2026-05-05 18:02 37.92477 23.94422 309 ft 9 kts 127°
2026-05-05 18:03 37.92490 23.94455 308 ft 4 kts 37°
2026-05-05 18:03 37.92492 23.94458 308 ft 1 kts 37°
2026-05-05 18:03 37.92494 23.94459 308 ft 0 kts 37°
2026-05-05 18:04 37.92588 23.94550 306 ft 50 kts 37°
2026-05-05 18:04 37.93056 23.94993 299 ft 115 kts 37°
2026-05-05 18:04 37.93839 23.95738 329 ft 159 kts 37°
2026-05-05 18:04 37.94702 23.96569 1015 ft 154 kts 37°
2026-05-05 18:05 37.95568 23.97403 1630 ft 160 kts 37°
2026-05-05 18:05 37.96516 23.98310 1950 ft 182 kts 37°
2026-05-05 18:05 37.97589 23.99338 2228 ft 205 kts 37°
2026-05-05 18:05 37.98783 24.00482 2529 ft 224 kts 36°
2026-05-05 18:06 38.00089 24.01736 2964 ft 243 kts 36°
2026-05-05 18:06 38.01006 24.02617 3525 ft 246 kts 36°
2026-05-05 18:06 38.02822 24.04369 4304 ft 247 kts 35°
2026-05-05 18:06 38.04186 24.05683 4867 ft 246 kts 35°
2026-05-05 18:07 38.05551 24.06996 5399 ft 247 kts 34°
2026-05-05 18:07 38.06760 24.08629 5977 ft 265 kts 57°
2026-05-05 18:07 38.07256 24.10921 6537 ft 278 kts 87°
2026-05-05 18:07 38.06758 24.13312 7070 ft 289 kts 118°
2026-05-05 18:08 38.05317 24.15098 7622 ft 297 kts 149°
2026-05-05 18:08 38.03449 24.16248 8169 ft 300 kts 154°
2026-05-05 18:08 38.01514 24.17359 8738 ft 302 kts 154°
2026-05-05 18:08 37.99609 24.18436 9302 ft 305 kts 154°
2026-05-05 18:09 37.97670 24.19536 9886 ft 307 kts 154°
2026-05-05 18:09 37.95675 24.20670 10433 ft 313 kts 154°
2026-05-05 18:09 37.93647 24.21827 10975 ft 325 kts 154°
2026-05-05 18:09 37.91552 24.23028 11522 ft 336 kts 154°
2026-05-05 18:10 37.89388 24.24272 12079 ft 347 kts 154°
2026-05-05 18:10 37.87164 24.25555 12647 ft 356 kts 154°
2026-05-05 18:10 37.84881 24.26872 13223 ft 364 kts 154°
2026-05-05 18:10 37.82554 24.28217 13813 ft 372 kts 154°
2026-05-05 18:11 37.80176 24.29590 14340 ft 378 kts 154°